NILESAT 301

Last updated on Thu Nov 21 2024 00:02:44 GMT+0000 (Coordinated Universal Time)

1 52817U 22061A 24325.26577118 -.00000056 00000+0 00000+0 0 9997 2 52817 0.0547 26.5629 0003538 236.7514 245.1470 1.00272089 8985
UTC large
Height (km)
Speed (km/s)
/
Latitude / Longitude
Inclination (degrees)
Orbital Period (minutes)
Azimuth
Elevation
Range (km)
Doppler Factor

Next 0 passes for location: London (51.5072 / 0.1276)

Sorry there are no passes over London.